Flight Track Log - Related Links

Times and Time Zones

All times are in EST time to prevent confusion due to time zone crossing. See the EJA396 flight status page for this flight to view local times or setup timezone preferences in your user account.

Time Position Orientation Groundspeed Altitude Reporting Facility
EST Latitude Longitude Course Direction KTS MPH feet Rate Location/Type
Thu 04:11:24 PM 38.9667 -77.5333 322° Northwest 222 255 3,600  Level Potomac TRACON
Thu 04:12:24 PM 39.0167 -77.5833 322° Northwest 238 274 7,500 2,700 Climbing Potomac TRACON
Thu 04:13:24 PM 39.1000 -77.5500 17° North 305 351 9,000 750 Climbing Potomac TRACON
Thu 04:14:24 PM 39.1500 -77.4500 57° Northeast 321 369 9,000  Level Potomac TRACON
Thu 04:15:25 PM 39.1833 -77.3667 63° Northeast 315 362 9,000 593 Level Potomac TRACON
Thu 04:17:26 PM 39.2783 -77.1681 58° Northeast 347 399 10,800 1,374 Climbing Washington Center
Thu 04:18:24 PM 39.3214 -77.0431 66° East 367 422 13,100 2,672 Climbing Washington Center
Thu 04:19:25 PM 39.2981 -76.9031 102° East 367 422 16,100 2,678 Climbing Washington Center
Thu 04:20:25 PM 39.2536 -76.7628 112° Southeast 394 453 18,500 2,471 Climbing Washington Center
Thu 04:21:24 PM 39.2092 -76.6175 112° Southeast 412 474 21,000 2,218 Climbing Washington Center
Thu 04:22:24 PM 39.1625 -76.4642 111° Southeast 435 501 22,900 992 Climbing Washington Center
Thu 04:23:25 PM 39.1156 -76.3086 111° Southeast 453 521 23,000 50 Climbing Washington Center
Thu 04:24:24 PM 39.0664 -76.1556 112° Southeast 458 527 23,000  Level Washington Center
Thu 04:25:24 PM 39.0461 -75.9925 99° East 449 517 23,000  Level Washington Center
Thu 04:26:25 PM 39.0506 -75.8242 88° East 455 524 23,000  Level Washington Center
Thu 04:27:26 PM 39.0614 -75.6531 85° East 462 532 23,000  Level Washington Center
Thu 04:28:24 PM 39.0653 -75.4819 88° East 467 537 23,000 504 Level Washington Center
Thu 04:29:25 PM 39.0714 -75.3003 87° East 473 544 24,000 1,388 Climbing Washington Center
Thu 04:30:25 PM 39.0417 -75.1372 103° East 461 531 25,800 1,750 Climbing Washington Center
Thu 04:31:25 PM 39.0033 -74.9692 106° East 472 543 27,500 1,686 Climbing Washington Center
Thu 04:32:26 PM 38.9669 -74.7986 105° East 478 550 29,200 1,587 Climbing Washington Center
Thu 04:33:26 PM 38.9281 -74.6283 106° East 483 556 30,700 1,475 Climbing Washington Center
Thu 04:34:24 PM 38.8911 -74.4636 106° East 483 556 32,100 1,563 Climbing Washington Center
Thu 04:35:25 PM 38.8458 -74.2989 109° East 483 556 33,800 1,249 Climbing Washington Center
Thu 04:37:17 PM 38.7153 -74.0383 123° Southeast 538 619 35,700 1,012 Climbing New York Center
Thu 04:38:17 PM 38.6422 -73.8836 121° Southeast 519 597 36,700 1,000 Climbing New York Center
Thu 04:39:17 PM 38.5631 -73.7286 123° Southeast 513 590 37,700 1,000 Climbing New York Center
Thu 04:40:17 PM 38.4853 -73.5769 123° Southeast 513 590 38,700 1,000 Climbing New York Center
Thu 04:41:17 PM 38.4075 -73.4256 123° Southeast 513 590 39,700 1,000 Climbing New York Center
Thu 04:42:17 PM 38.3297 -73.2744 123° Southeast 513 590 40,700 650 Climbing New York Center
Thu 04:43:17 PM 38.2536 -73.1236 123° Southeast 513 590 41,000 150 Climbing New York Center
Thu 04:44:17 PM 38.1772 -72.9653 122° Southeast 513 590 41,000 -50 Level New York Center
Thu 04:45:17 PM 38.0967 -72.8175 125° Southeast 513 590 40,900 -500 Descending New York Center
Thu 04:46:17 PM 38.0219 -72.6653 122° Southeast 513 590 40,000 -450 Descending New York Center
Thu 04:47:17 PM 37.9453 -72.5158 123° Southeast 508 585 40,000  Level New York Center
Thu 04:48:17 PM 37.8658 -72.3667 124° Southeast 520 598 40,000  Level New York Center
Thu 04:49:17 PM 37.7889 -72.2072 121° Southeast 514 592 40,000  Level New York Center
Thu 04:50:17 PM 37.7133 -72.0586 123° Southeast 514 592 40,000  Level New York Center
Thu 04:51:17 PM 37.6314 -71.9156 126° Southeast 509 586 40,000  Level New York Center
Thu 04:52:17 PM 37.5556 -71.7756 124° Southeast 501 577 40,000  Level New York Center
Thu 04:53:17 PM 37.4650 -71.6303 128° Southeast 510 587 40,000  Level New York Center
Thu 04:54:17 PM 37.3825 -71.4986 128° Southeast 505 581 40,000  Level New York Center
Thu 04:55:17 PM 37.3208 -71.3492 117° Southeast 487 560 40,000  Level New York Center
Thu 05:12:14 PM 36.1667 -69.4500 143° Southeast 480 552 40,000  Level New York Oceanic (ODAPS)
Thu 05:21:18 PM 34.7828 -68.1539 144° Southeast 444 511 40,000  Level New York Center
Thu 05:22:00 PM 34.5638 -67.9686 143° Southeast 480 552 40,000  Level FlightAware Transoceanic
Thu 05:22:17 PM 34.6767 -68.0689 147° Southeast 479 551 40,000  Level New York Center
Thu 05:23:00 PM 34.4563 -67.8719 143° Southeast 480 552 40,000  Level FlightAware Transoceanic
Thu 05:23:17 PM 34.5553 -67.9594 143° Southeast 493 567 40,000  Level New York Center
Thu 05:24:00 PM 34.3487 -67.7755 144° Southeast 480 552 40,000  Level FlightAware Transoceanic
Thu 05:24:17 PM 34.4506 -67.8572 141° Southeast 487 560 40,000  Level New York Center
Thu 05:25:00 PM 34.2411 -67.6793 144° Southeast 480 552 40,000  Level FlightAware Transoceanic
Thu 05:25:17 PM 34.3525 -67.7678 143° Southeast 493 567 40,000  Level New York Center
Thu 05:26:17 PM 34.2269 -67.6642 146° Southeast 493 567 40,000  Level New York Center
Thu 05:27:17 PM 34.1244 -67.5803 146° Southeast 493 567 40,000  Level New York Center
Thu 05:28:17 PM 33.9872 -67.5131 158° South 493 567 40,000  Level New York Center
Thu 05:29:17 PM 33.8625 -67.4503 157° South 485 558 40,000  Level New York Center
Thu 05:30:17 PM 33.7544 -67.3947 157° South 479 551 40,000  Level New York Center
Thu 05:31:17 PM 33.6150 -67.3331 160° South 491 565 40,000  Level New York Center
Thu 05:32:17 PM 33.4986 -67.2683 155° Southeast 478 550 40,000 300 Level New York Center
Thu 05:33:17 PM 33.3825 -67.2233 162° South 485 558 40,600 500 Climbing New York Center
Thu 05:34:17 PM 33.2514 -67.1569 157° South 471 542 41,000 200 Climbing New York Center
Thu 05:35:17 PM 33.1414 -67.1047 158° South 471 542 41,000  Level New York Center
Thu 05:36:17 PM 33.0081 -67.0436 159° South 477 549 41,000  Level New York Center
Thu 05:37:17 PM 32.8833 -66.9850 158° South 477 549 41,000  Level New York Center
Thu 05:38:17 PM 32.7772 -66.9303 157° South 478 550 41,000  Level New York Center
Thu 05:39:17 PM 32.6397 -66.8700 160° South 478 550 41,000  Level New York Center
Thu 05:40:17 PM 32.5172 -66.8142 159° South 478 550 41,000  Level New York Center
Thu 05:41:17 PM 32.3942 -66.7536 157° South 477 549 41,000  Level New York Center
Thu 05:42:17 PM 32.2694 -66.6981 159° South 482 555 41,000  Level New York Center
Thu 05:43:17 PM 32.1550 -66.6447 158° South 482 555 41,000  Level New York Center
Thu 05:44:17 PM 32.0194 -66.5825 159° South 482 555 41,000  Level New York Center
Thu 05:45:17 PM 31.8925 -66.5228 158° South 482 555 41,000  Level New York Center
Thu 05:46:17 PM 31.7867 -66.4744 159° South 476 548 41,000  Level New York Center
Thu 05:47:17 PM 31.6489 -66.4131 159° South 482 555 41,000  Level New York Center
Thu 05:48:17 PM 31.5367 -66.3625 159° South 483 556 41,000  Level New York Center
Thu 05:49:17 PM 31.4011 -66.3014 159° South 481 554 41,000  Level New York Center
Thu 05:50:17 PM 31.2803 -66.2444 158° South 476 548 41,000  Level New York Center
Thu 05:51:17 PM 31.1725 -66.1992 160° South 472 543 41,000  Level New York Center
Thu 05:52:17 PM 31.0325 -66.1339 158° South 481 554 41,000  Level New York Center
Thu 05:53:17 PM 30.9161 -66.0844 160° South 471 542 41,000  Level New York Center
Thu 05:54:17 PM 30.7889 -66.0236 158° South 471 542 41,000  Level New York Center
Thu 05:55:17 PM 30.6703 -65.9747 160° South 471 542 41,000  Level New York Center
Thu 05:56:17 PM 30.5600 -65.9228 158° South 471 542 41,000  Level New York Center
Thu 05:57:17 PM 30.4244 -65.8653 160° South 484 557 41,000  Level New York Center
Thu 05:58:17 PM 30.3011 -65.8025 156° South 478 550 41,000  Level New York Center
Thu 05:59:17 PM 30.1956 -65.7631 162° South 473 544 41,000  Level New York Center
Thu 06:00:17 PM 30.0578 -65.6989 158° South 470 541 41,000  Level New York Center
Thu 06:01:17 PM 29.9497 -65.6522 159° South 477 549 41,000  Level New York Center
Thu 06:02:17 PM 29.8139 -65.5908 159° South 475 547 41,000  Level New York Center
Thu 06:03:17 PM 29.6956 -65.5453 162° South 475 547 41,000  Level New York Center
Thu 06:04:17 PM 29.5853 -65.4944 158° South 486 559 41,000  Level New York Center
Thu 06:23:47 PM 27.3167 -64.9667 169° South 463 533 41,000  Level New York Oceanic (ODAPS)
Thu 07:06:10 PM 21.9667 -63.8667 170° South 430 495 41,000  Level San Juan Center
Thu 07:07:00 PM 21.6039 -63.8016 170° South 463 533 41,000  Level FlightAware Transoceanic
Thu 07:07:10 PM 21.8333 -63.8333 167° South 440 506 41,000  Level San Juan Center
Thu 07:08:00 PM 21.4808 -63.7774 170° South 463 533 41,000  Level FlightAware Transoceanic
Thu 07:08:10 PM 21.7167 -63.8167 172° South 440 506 41,000  Level San Juan Center
Thu 07:09:00 PM 21.3577 -63.7533 170° South 463 533 41,000  Level FlightAware Transoceanic
Thu 07:09:10 PM 21.6000 -63.7833 165° South 450 518 41,000  Level San Juan Center
Thu 07:10:00 PM 21.2346 -63.7293 170° South 463 533 41,000  Level FlightAware Transoceanic
Thu 07:10:11 PM 21.5000 -63.7667 171° South 440 506 41,000  Level San Juan Center
Thu 07:11:00 PM 21.1115 -63.7052 170° South 463 533 41,000  Level FlightAware Transoceanic
Thu 07:11:11 PM 21.3500 -63.7500 174° South 440 506 41,000  Level San Juan Center
Thu 07:12:11 PM 21.2167 -63.7167 167° South 460 529 41,000  Level San Juan Center
Thu 07:13:11 PM 21.1000 -63.7000 172° South 450 518 41,000  Level San Juan Center
Thu 07:14:11 PM 20.9667 -63.6667 167° South 450 518 41,000  Level San Juan Center
Thu 07:15:11 PM 20.8667 -63.6500 171° South 450 518 41,000  Level San Juan Center
Thu 07:16:11 PM 20.7167 -63.6333 174° South 440 506 41,000  Level San Juan Center
Thu 07:17:11 PM 20.6000 -63.6000 165° South 460 529 41,000  Level San Juan Center
Thu 07:18:11 PM 20.4667 -63.5667 167° South 450 518 41,000  Level San Juan Center
Thu 07:19:11 PM 20.3500 -63.5500 172° South 450 518 41,000  Level San Juan Center
Thu 07:20:12 PM 20.2333 -63.5167 165° South 450 518 41,000 -595 Level San Juan Center
Thu 07:21:12 PM 20.1000 -63.5000 173° South 450 518 39,800 -1,800 Descending San Juan Center
Thu 07:22:12 PM 19.9833 -63.4833 172° South 450 518 37,400 -2,500 Descending San Juan Center
Thu 07:23:12 PM 19.8500 -63.4500 167° South 460 529 34,800 -2,600 Descending San Juan Center
Thu 07:24:12 PM 19.7167 -63.4333 173° South 470 541 32,200 -2,450 Descending San Juan Center
Thu 07:25:12 PM 19.5833 -63.4000 167° South 470 541 29,900 -2,500 Descending San Juan Center
Thu 07:26:12 PM 19.4500 -63.3833 173° South 470 541 27,200 -2,600 Descending San Juan Center
Thu 07:27:12 PM 19.3333 -63.3500 165° South 460 529 24,700 -2,350 Descending San Juan Center
Thu 07:28:12 PM 19.2167 -63.3333 172° South 440 506 22,500 -2,132 Descending San Juan Center
Thu 07:29:13 PM 19.1000 -63.3167 172° South 420 483 20,400 -2,083 Descending San Juan Center
Thu 07:30:13 PM 19.0000 -63.3000 171° South 400 460 18,300 -2,050 Descending San Juan Center
Thu 07:31:13 PM 18.8833 -63.2667 165° South 390 449 16,300 -2,050 Descending San Juan Center
Thu 07:32:13 PM 18.7833 -63.2500 171° South 380 437 14,200 -1,950 Descending San Juan Center
Thu 07:33:13 PM 18.6833 -63.2333 171° South 360 414 12,400 -1,800 Descending San Juan Center
Thu 07:34:13 PM 18.6000 -63.2167 169° South 340 391 10,600 -2,050 Descending San Juan Center
Thu 07:35:13 PM 18.5167 -63.2000 169° South 320 368 8,300 -2,579 Descending San Juan Center
Thu 07:36:14 PM 18.4333 -63.1667 159° South 300 345 5,400 -2,852 Descending San Juan Center
Thu 07:38:00 PM 18.2119 -63.1390 169° South  Level FlightAware Approximate
Thu 07:45:00 PM 18.2000 -63.0500 18° North  Level FlightAware Approximate
Thu 07:46:00 PM 18.2048 -63.0551 18° North  Level Estimated
Thu 07:47:00 PM 18.2000 -63.0500 18° North  Level FlightAware Approximate
Thu 07:48:00 PM 18.2048 -63.0551 18° North  Level Estimated
Thu 07:49:00 PM 18.2000 -63.0500 18° North  Level FlightAware Approximate
Thu 07:50:00 PM 18.2048 -63.0551 18° North  Level Estimated
Thu 07:51:00 PM 18.2000 -63.0500 18° North  Level FlightAware Approximate
Thu 07:52:00 PM 18.2048 -63.0551 18° North  Level Estimated
Thu 07:53:00 PM 18.2000 -63.0500 18° North  Level FlightAware Approximate
Thu 07:54:00 PM 18.2048 -63.0551 18° North  Level Estimated

Login

Don't have an account? Register now (free) for customized features, flight alerts, and more!